GFSGL_con_mucape_000.txt.gz
CAPE
1705 1934 1437 744 881 1397 1149 1149 1209 1571 1565 1473 1391 1263 1207 1024 1094 879 885 1024 536 698 782 627 574 342 100 30 3 6 9 16 50 5 74 240 368 194 222 516 205 127 471
1403 1830 1563 1326 957 902 1139 1025 1078 1266 1477 1436 1481 1408 1287 1135 1040 906 837 881 786 724 761 782 597 172 272 38 0 9 16 2 38 80 66 228 386 262 145 334 159 107 109
1238 918 1385 1448 1358 1446 1356 1332 1306 1303 1333 1468 1486 1290 1199 1218 1159 1129 936 851 947 915 923 740 623 362 243 81 1 3 10 2 27 41 48 219 298 325 297 305 112 154 200
631 898 1492 1605 1585 1392 1691 1835 1451 1714 1788 1811 1553 1435 1215 1235 1225 955 863 782 757 938 949 746 724 552 357 75 4 2 3 0 0 20 10 38 270 271 324 227 404 516 513
1038 1205 1610 1861 1736 1802 1894 1714 1667 1784 1671 1816 1636 1544 1566 1289 671 998 780 1027 1046 1008 1020 768 681 639 258 123 33 14 1 0 0 9 4 13 4 272 319 147 316 392 550
1008 1288 1769 1842 1724 1696 2034 2206 2072 2126 1968 1720 1549 1570 1523 1002 146 168 454 981 1019 981 972 875 734 517 448 208 103 93 7 20 1 0 0 0 0 28 280 226 181 327 311
1719 1590 1674 1816 1852 2096 2058 2089 2068 1969 2010 1932 1785 1633 1541 1374 542 130 277 547 779 832 968 974 577 562 293 246 198 96 41 8 4 0 0 0 0 0 117 262 167 258 249
1842 1813 1816 1966 2006 2283 2254 2220 2278 2266 2257 1858 1683 1704 1587 1060 374 115 137 536 791 891 1027 825 537 541 651 374 158 115 77 2 1 22 0 0 0 0 4 185 238 119 417
1813 1941 1975 2008 2148 2296 2328 2136 2308 2255 1939 1969 1763 1614 1314 1346 443 241 140 582 721 714 1126 737 779 464 334 84 30 58 1 1 6 0 0 0 0 0 0 8 201 126 154
1723 2018 2176 2239 2470 2504 2312 2140 1785 2088 1627 1101 1092 1420 1246 1277 344 157 77 10 43 377 833 840 364 98 67 30 9 20 30 37 0 0 25 52 8 0 0 1 0 220 33
1897 2125 2351 2582 2985 3003 2797 2174 1906 1175 934 1490 1504 1428 1400 965 427 113 56 94 110 498 170 193 612 66 27 11 5 39 3 17 0 5 136 166 62 0 0 0 5 400 102
2930 2684 2998 3211 2101 1793 2567 2244 1942 1998 1740 1287 1306 1012 634 461 162 66 107 57 42 84 150 245 308 0 34 31 0 25 20 14 0 0 123 156 132 126 7 230 62 201 400
2782 3281 3040 2480 2410 2378 2162 1876 2097 1644 1320 1429 965 536 445 202 538 36 33 28 5 0 146 29 16 31 69 4 16 19 4 0 5 0 1 196 166 112 290 412 433 165 192
3187 3313 3167 2672 2588 1957 1996 1642 941 1240 834 796 322 814 663 662 43 35 6 0 0 0 0 0 47 4 0 0 26 46 31 2 7 45 0 5 10 22 135 228 330 449 334
3182 2608 2696 2258 2130 1585 734 241 391 157 119 79 28 8 0 28 10 0 0 0 0 0 0 17 173 5 0 0 3 59 53 29 29 10 0 0 3 8 4 26 139 178 236
2211 1824 1586 1377 444 867 223 91 66 108 68 12 0 0 0 0 0 0 0 0 0 0 0 27 5 0 0 0 0 37 50 61 24 32 12 6 0 0 5 6 8 3 5
1660 1653 922 261 865 818 1092 1060 402 180 83 0 0 0 0 0 0 0 0 0 0 0 1 0 0 0 0 0 0 25 53 43 37 34 0 31 57 4 0 4 1 5 27
940 266 522 644 660 762 683 478 393 522 88 1 0 0 0 0 0 0 0 0 0 0 0 0 0 0 0 1 6 6 28 32 39 30 25 9 10 43 48 0 1 8 1
550 495 687 781 511 361 207 97 45 5 0 0 0 0 2 0 0 0 0 0 0 0 0 2 0 0 1 1 12 14 23 16 26 36 35 27 14 26 48 11 7 4 0
473 82 295 727 154 270 72 22 0 1 0 0 0 0 0 0 0 0 0 0 0 0 0 2 2 2 3 5 11 12 16 10 15 13 17 7 19 12 5 6 32 34 0
230 236 168 438 183 23 0 0 0 6 4 2 0 0 0 0 0 0 0 0 0 0 0 0 0 0 0 0 2 9 8 8 12 7 0 3 0 1 7 9 0 48 6
126 202 214 445 155 114 66 68 4 0 0 0 0 0 0 0 0 0 0 0 0 0 0 0 0 0 0 0 0 0 0 0 0 0 0 0 0 0 0 1 1 7 0
111 129 76 29 17 6 4 13 5 0 13 2 3 0 0 0 0 0 0 6 12 0 0 0 0 0 0 0 0 0 0 0 0 0 0 0 0 0 0 0 0 0 4
6 0 0 2 5 1 5 1 0 0 0 0 0 0 0 3 0 0 0 0 0 0 0 0 0 0 0 0 0 0 0 0 0 0 0 0 0 0 0 0 0 0 0
0 5 10 10 17 5 3 1 0 4 0 0 0 0 0 0 0 0 0 0 0 0 0 0 0 0 0 0 0 0 0 0 0 0 0 0 0 0 0 0 0 0 0
1 0 0 2 2 0 0 0 0 0 0 0 0 0 0 0 0 0 0 0 0 0 0 0 0 0 0 0 0 0 0 0 0 0 0 0 0 0 0 0 0 0 0

GFSGL_con_mucape_006.txt.gz
CAPE
1348 232 184 206 140 31 32 6 0 0 34 167 165 96 35 34 69 222 171 215 93 67 163 103 79 83 60 29 0 0 0 0 0 0 0 0 0 0 0 0 0 13 102
1089 452 372 386 369 178 113 89 9 48 43 1 1 0 1 40 61 80 217 292 288 130 104 72 55 63 75 75 27 0 0 0 0 0 0 0 0 0 0 0 0 6 62
1186 788 524 481 477 166 127 87 28 35 12 0 0 0 11 57 32 53 45 89 351 168 111 88 98 145 145 137 125 84 28 16 7 0 0 0 0 0 0 0 0 0 15
1130 969 816 447 138 54 110 67 54 52 32 12 0 17 214 42 42 91 128 236 368 207 129 87 154 312 291 200 164 148 115 23 19 2 0 0 0 0 0 0 0 0 0
1151 1139 977 487 289 40 70 81 71 111 134 85 107 284 162 137 85 299 321 132 89 62 105 177 187 173 203 199 172 144 101 34 18 9 0 0 0 0 0 0 5 0 0
1261 1278 916 383 295 102 134 179 212 217 364 163 305 360 285 52 228 178 88 55 44 19 22 25 59 151 187 239 193 138 112 68 26 36 10 0 0 0 0 0 0 0 0
1555 1200 640 314 211 222 268 364 383 370 391 354 329 491 109 239 132 270 173 60 56 28 13 13 28 42 109 141 139 50 51 40 61 35 18 7 16 27 42 0 0 0 0
1430 967 442 357 293 332 388 433 431 445 538 647 733 403 372 242 253 430 209 77 44 30 21 19 3 18 56 80 30 1 0 0 0 0 0 5 13 12 4 0 0 0 0
1317 701 536 500 445 441 471 487 546 639 785 889 691 341 372 378 274 350 167 41 32 8 4 21 3 0 13 0 0 0 0 0 0 0 0 11 1 0 29 1 0 0 0
1371 943 532 527 504 454 486 567 699 830 893 774 529 445 59 220 208 95 70 46 26 22 26 6 1 7 13 0 0 0 0 0 0 0 3 10 1 4 5 4 2 3 11
1187 631 313 608 567 525 641 915 1025 962 770 537 428 61 146 109 59 43 74 68 45 27 6 17 3 0 0 0 0 0 0 0 0 0 3 5 0 1 3 27 89 28 2
668 315 279 309 485 836 1109 1306 845 725 620 326 124 34 52 76 83 53 70 45 17 0 0 0 1 0 0 4 3 0 0 0 0 1 5 0 0 0 1 67 173 91 3
651 398 348 163 38 41 698 1045 808 605 496 123 46 89 141 109 68 80 25 17 8 1 6 0 0 0 0 3 0 0 0 0 0 0 0 1 0 0 1 162 255 267 154
703 291 30 18 0 105 580 696 508 432 305 58 36 60 42 18 31 1 1 1 0 16 14 0 0 3 3 1 0 0 0 0 0 0 0 0 1 0 0 52 286 388 240
216 70 0 0 22 308 349 526 456 397 117 0 0 1 15 0 0 0 0 0 0 14 1 22 0 3 4 3 0 0 0 0 0 0 0 0 0 0 0 0 210 274 347
107 77 16 14 192 357 518 349 281 182 76 34 37 24 0 0 0 0 0 0 2 5 0 0 0 0 0 0 0 0 0 0 0 0 0 0 2 8 0 0 4 134 134
32 106 117 131 463 329 180 173 175 72 58 73 33 0 0 0 0 0 0 3 0 0 0 0 0 0 0 0 0 0 0 0 0 0 0 0 0 3 0 0 0 6 9
92 335 388 251 142 139 126 108 135 95 22 0 0 0 0 0 0 0 0 4 0 0 0 0 0 0 0 0 0 0 0 4 2 0 0 0 0 0 0 0 0 0 0
128 140 123 140 115 152 205 154 99 81 37 2 0 0 0 0 0 0 7 8 3 0 0 0 0 0 0 0 0 0 0 0 0 0 0 0 0 0 0 4 0 0 30
57 70 228 272 221 181 82 56 51 24 16 0 0 0 0 0 0 0 0 0 0 0 0 0 0 0 0 0 0 0 0 0 0 0 0 0 0 0 0 0 0 0 0
102 48 53 132 142 101 103 76 28 0 0 0 0 0 0 0 0 0 0 0 0 0 0 0 0 0 0 0 0 0 0 0 0 0 0 0 0 0 0 0 1 19 3
135 182 141 135 140 140 80 1 3 5 4 12 3 2 0 0 0 0 0 0 0 0 0 0 0 0 0 0 0 0 0 0 0 0 0 0 0 0 0 0 0 0 4
152 84 166 144 89 46 20 2 15 24 15 10 5 1 3 0 0 0 0 0 0 0 0 0 0 0 0 0 0 0 0 0 0 0 0 0 0 0 0 0 0 0 2
51 100 70 7 14 34 33 27 25 10 10 31 15 4 3 0 0 0 0 0 0 0 0 0 0 0 0 0 0 0 0 0 0 0 0 0 0 0 0 0 0 0 0
1 5 2 1 0 0 0 0 0 0 5 21 12 4 1 0 0 0 0 0 0 0 0 0 0 0 0 0 0 0 0 0 0 0 0 0 0 0 0 0 0 0 0
13 12 1 0 1 3 1 0 0 0 0 2 0 0 0 0 0 0 0 0 0 0 0 0 0 0 0 0 0 0 0 0 0 0 0 0 0 0 0 0 0 0 0

GFSGL_con_mucape_009.txt.gz
CAPE
1593 1738 1265 785 10 14 61 90 60 11 0 0 0 4 6 3 0 0 0 0 14 50 45 44 59 46 37 37 7 0 0 0 0 0 0 0 0 0 0 0 0 0 0
1586 1746 1323 283 173 173 63 26 2 0 0 14 77 61 16 0 0 22 1 0 50 64 66 48 48 32 30 80 63 52 46 27 4 0 0 0 0 0 0 0 0 0 0
1447 1708 1430 617 166 192 202 12 8 0 2 33 14 2 0 0 0 2 0 0 5 38 98 71 63 67 37 66 115 135 128 103 59 27 0 0 0 0 0 0 0 0 0
1451 1683 1666 1225 295 281 322 169 101 50 52 38 29 6 0 0 69 38 9 38 84 123 95 99 82 61 33 84 89 107 153 132 55 33 0 0 0 0 0 0 0 0 0
1442 1640 1835 1456 746 358 381 215 123 106 78 70 60 39 14 47 283 136 47 182 160 63 52 42 35 70 99 74 57 105 85 76 81 49 15 0 0 0 0 0 0 1 0
1440 1567 1715 876 561 450 331 64 70 135 143 100 150 181 143 287 308 105 196 191 77 55 42 14 0 5 10 57 189 206 160 136 63 30 16 0 0 0 0 0 0 0 0
1419 1478 1480 1192 460 388 112 54 98 155 197 184 247 403 325 337 343 113 141 112 64 55 35 23 9 11 13 18 35 75 87 84 65 30 4 0 0 0 0 5 1 0 0
1391 1406 1488 758 593 426 160 252 166 235 271 309 380 466 500 441 191 102 95 159 97 71 31 28 12 0 5 19 65 27 4 0 0 0 0 0 0 0 8 21 4 1 13
1373 1359 1295 792 731 307 303 323 308 358 455 512 461 530 521 422 157 36 62 140 85 21 22 27 4 0 0 18 23 2 0 0 0 0 0 0 0 1 35 4 3 2 0
1522 1434 1492 1190 815 321 392 362 448 480 534 597 650 612 479 267 44 72 88 46 23 9 12 34 11 0 2 14 12 0 0 0 0 0 0 0 0 0 0 7 0 0 0
1663 1520 1541 1124 552 509 504 490 424 430 522 594 516 449 310 93 37 57 45 0 0 1 16 15 0 0 0 1 0 0 0 0 0 0 0 0 0 0 0 3 4 6 0
1584 1407 1334 880 548 489 528 467 19 24 216 356 360 235 112 39 22 53 42 47 9 0 0 0 0 0 0 0 0 2 1 0 0 0 0 0 0 0 0 0 15 4 14
1452 1306 1017 556 426 314 274 52 5 5 167 414 153 104 45 2 41 49 51 0 0 0 0 0 1 0 0 0 6 2 0 0 0 0 0 0 0 0 0 0 0 34 146
997 887 648 283 43 57 7 0 23 57 318 217 114 80 17 42 40 5 0 0 0 0 0 0 1 1 0 3 2 0 0 0 0 0 0 0 0 0 0 0 0 14 260
445 418 167 40 8 1 0 0 146 279 260 208 46 0 0 0 0 0 0 0 0 0 0 4 1 0 1 1 0 0 0 0 0 0 0 0 0 0 0 0 0 2 120
147 35 5 11 0 0 1 72 248 316 216 62 0 0 0 0 0 0 0 0 0 0 1 2 0 0 0 0 0 0 0 0 0 0 0 0 0 0 2 0 0 0 131
0 0 0 0 0 7 76 150 252 58 50 0 0 0 0 0 0 0 0 0 0 1 0 0 0 0 0 0 0 0 0 0 0 0 0 0 0 0 2 0 0 0 0
0 0 6 74 76 62 89 178 66 50 14 0 0 0 0 0 0 0 0 0 0 4 0 0 0 0 0 0 0 0 0 0 0 0 0 0 0 0 0 3 0 0 0
128 167 135 136 216 246 167 74 41 41 28 7 0 0 0 0 0 0 0 0 0 4 0 0 0 0 0 0 0 0 0 0 0 0 0 0 0 0 0 0 11 0 15
80 49 52 67 109 100 47 55 47 46 39 5 0 0 0 0 0 0 0 0 0 0 0 0 0 0 0 0 0 0 0 0 0 0 0 0 0 0 0 0 9 7 17
0 1 54 176 206 154 119 108 81 56 39 3 0 2 2 0 0 0 0 0 0 0 0 0 0 0 0 0 0 0 0 0 0 0 0 0 0 0 0 0 0 3 7
82 113 128 144 235 185 110 82 38 36 14 8 9 14 6 5 0 0 0 0 0 0 0 0 0 0 0 0 0 0 0 0 0 0 0 0 0 0 0 0 0 1 1
135 143 146 127 152 111 84 32 17 13 14 6 15 23 4 3 2 0 0 0 0 0 0 0 0 0 0 0 0 0 0 0 0 0 0 0 0 0 0 0 0 0 0
121 61 96 129 107 69 40 29 24 25 17 0 18 24 26 5 0 0 0 0 0 0 0 0 0 0 0 0 0 0 0 0 0 0 0 0 0 0 0 0 0 0 0
20 44 1 0 2 8 21 13 7 0 0 0 15 26 18 3 0 0 0 0 0 0 0 0 0 0 0 0 0 0 0 0 0 0 0 0 0 0 0 0 0 0 0
0 0 2 2 1 0 0 0 0 0 0 0 0 6 5 0 0 0 0 0 0 0 0 0 0 0 0 0 0 0 0 0 0 0 0 0 0 0 0 0 0 0 0

GFSGL_con_mucape_015.txt.gz
CAPE
2148 2529 2604 1803 1413 1361 856 472 105 427 354 449 481 261 262 292 271 348 418 302 315 481 510 474 524 583 367 314 309 170 99 65 54 0 4 3 0 1 14 39 19 0 0
2247 2482 2167 1353 1130 1063 1100 126 256 172 253 334 342 293 299 272 360 460 440 191 445 495 466 615 596 466 629 594 574 291 230 232 129 92 134 37 76 64 87 146 144 13 0
2124 1876 1667 1088 953 1066 1135 117 174 201 130 179 177 266 205 266 518 658 448 410 534 416 477 531 579 546 777 520 348 188 142 155 168 101 74 41 67 113 136 229 207 112 24
1868 2014 1954 1376 839 1109 1079 381 0 27 23 151 84 196 349 479 568 469 243 444 651 481 435 560 613 606 566 403 312 258 219 195 145 137 95 67 76 134 131 158 96 45 22
2281 2131 1729 1138 743 918 1217 665 13 5 0 6 33 91 177 65 149 267 360 634 908 820 631 704 717 546 197 113 104 129 191 171 115 96 123 111 94 94 113 129 93 71 108
2491 2137 1723 1174 1117 964 1150 883 366 155 125 68 21 62 118 100 49 0 174 707 933 902 778 733 707 96 41 0 2 24 68 101 114 158 174 176 257 150 110 76 31 10 11
2265 2058 1653 1140 1097 1161 1136 999 569 372 163 38 89 174 295 539 113 54 123 480 810 911 893 713 550 118 26 95 20 11 17 6 15 108 72 66 113 70 52 26 14 20 18
2246 2044 1586 1018 1093 1083 1121 1161 853 398 262 32 176 273 402 666 231 144 188 233 673 324 341 401 329 244 125 8 23 50 61 38 23 9 14 7 3 2 9 17 25 11 0
2203 2051 1448 994 1144 1183 1223 1197 1055 588 244 485 193 215 760 793 174 167 104 347 417 424 378 211 126 113 0 0 2 14 23 25 1 0 0 0 0 0 0 0 0 0 14
2097 1975 1483 1192 1321 1348 1423 1598 895 587 375 211 423 578 425 821 211 80 139 341 399 175 352 106 22 0 0 0 0 9 10 16 0 0 0 0 1 3 0 0 0 5 5
1854 1765 1322 1378 1321 1424 1361 1137 756 612 387 158 512 659 1010 432 303 77 105 247 190 224 206 100 20 0 0 0 0 4 2 0 0 0 0 1 3 0 0 0 7 16 11
1265 1217 1285 1325 1129 1026 972 973 806 688 732 477 518 461 304 334 22 70 125 77 31 152 170 41 0 0 0 0 0 0 0 0 0 2 3 1 0 0 0 0 0 2 11
1012 1151 1102 927 993 910 932 883 807 695 302 204 193 55 107 169 102 94 57 24 3 16 30 1 0 0 0 0 0 0 0 0 0 0 0 0 0 0 0 0 0 0 9
969 902 853 987 817 714 548 443 419 301 203 69 125 354 308 129 123 130 24 5 37 18 1 0 0 0 0 0 0 0 0 0 0 0 0 0 0 0 0 0 0 0 0
779 703 835 864 664 277 279 93 10 13 10 76 212 299 334 205 41 6 5 1 1 0 0 0 0 0 0 0 0 0 0 0 0 0 0 0 0 0 0 0 0 0 5
564 480 289 264 124 75 63 1 0 0 0 0 36 58 25 7 0 0 0 0 0 0 0 0 1 2 1 0 0 0 0 0 0 0 0 0 0 0 0 0 0 4 6
552 485 262 394 310 9 0 0 0 0 31 95 86 14 1 0 0 0 0 0 0 0 0 0 0 0 0 0 0 0 0 0 0 0 0 0 0 0 0 0 0 13 9
482 300 428 58 2 0 1 0 1 4 38 25 5 2 0 0 0 0 0 0 0 0 0 0 0 0 0 0 0 0 0 0 0 0 0 0 0 0 0 0 0 4 5
83 51 0 6 41 32 26 24 30 38 60 31 8 0 0 0 0 0 0 0 0 0 0 0 0 0 0 0 0 0 0 0 0 0 0 0 0 0 0 0 0 0 0
108 0 10 156 97 110 98 97 84 103 46 18 1 0 0 0 0 0 0 0 0 0 0 0 0 0 0 0 0 0 0 0 0 0 0 0 0 0 0 0 0 0 0
276 245 140 190 179 161 168 157 133 68 27 0 0 0 0 0 0 0 0 0 0 0 0 0 0 0 0 0 0 0 0 0 0 0 0 0 0 0 0 0 0 0 1
81 105 180 261 276 210 225 155 207 209 114 67 50 5 0 0 0 0 0 0 0 0 0 0 0 0 0 0 0 0 0 0 0 0 0 0 0 0 0 0 0 0 0
94 139 274 349 415 176 161 303 270 184 127 113 69 0 0 0 0 0 0 0 0 0 0 0 0 0 0 0 0 0 0 0 0 0 0 0 0 0 0 0 0 0 0
224 281 289 283 284 378 407 385 217 48 87 68 21 0 0 3 9 5 0 0 0 0 0 0 0 0 0 0 0 0 0 0 0 0 0 0 0 0 0 0 0 0 0
92 165 212 248 289 341 174 131 80 116 82 67 47 27 29 26 9 20 5 0 0 0 0 0 0 0 0 0 0 0 0 0 0 0 0 0 0 0 0 0 0 0 0
0 21 13 0 1 26 62 61 62 73 63 60 53 39 25 29 43 28 19 8 0 0 0 0 0 0 0 0 0 0 0 0 0 0 0 0 0 0 0 0 0 0 0

GFSGL_con_mucape_021.txt.gz
CAPE
4225 4337 4321 4302 3924 4464 3965 4025 3677 3128 2669 1958 1765 1700 1303 1188 952 1364 861 649 608 897 591 476 265 730 130 42 114 430 291 263 92 75 218 182 945 819 630 474 222 93 61
3786 4414 4384 4436 4034 3945 4150 3978 3938 3227 2895 2275 2092 1796 1290 781 523 588 978 314 705 677 895 1127 731 163 1416 1157 307 1134 543 558 43 636 271 118 580 730 1078 1156 331 81 69
3576 3657 4329 4435 4240 3982 4274 4142 3920 3479 2168 2011 2002 1534 1282 651 426 1112 1172 711 695 858 885 943 830 1095 1009 527 1421 750 211 635 1037 128 177 110 140 101 282 737 821 367 120
2789 3144 4034 4492 4452 4106 4248 4298 4209 3281 2541 2185 2019 1761 1211 871 620 786 978 722 745 793 845 694 566 950 900 1302 1322 1294 1064 647 485 173 228 176 140 339 112 134 84 103 15
3519 3703 4190 4582 4558 4554 4096 4225 4024 3021 2582 2096 1904 1666 938 295 127 447 599 609 806 697 575 1183 1223 1216 709 565 470 762 1342 769 236 152 154 102 94 283 202 145 76 86 175
4062 4065 4430 4779 4604 4578 4327 4065 3767 3050 2130 1920 1769 1203 754 214 143 127 324 322 875 994 1298 1137 1352 922 794 276 147 82 98 382 955 264 132 108 539 337 258 285 124 33 31
4324 4349 4651 4827 4761 4602 4172 3952 3547 2756 1938 1557 1155 888 459 334 330 382 228 315 684 1138 1456 1502 1149 599 489 719 304 168 109 77 22 118 214 433 374 382 449 341 268 80 11
4406 4580 4671 4886 4839 4398 3715 3567 2992 2224 2175 1597 1153 843 690 877 690 581 422 285 935 894 999 1735 1750 1651 1279 1042 692 729 808 701 563 128 345 317 356 139 41 48 68 25 21
4161 4519 4612 4647 4808 4173 3492 3141 2516 2226 1984 1563 1151 1126 849 1320 739 412 168 305 438 1146 1644 1761 1572 1227 676 346 333 592 432 419 162 83 42 10 0 0 0 0 3 19 24
4265 4171 4604 4647 4276 3477 3126 3074 2613 2127 1602 1387 1149 1072 1186 1340 658 341 85 561 790 617 1747 1830 594 564 262 294 68 198 363 368 189 183 92 4 13 9 1 25 37 59 44
3339 3302 3810 3775 4018 3550 2743 2680 2011 1547 1428 1242 1218 1040 968 1032 1172 557 231 678 383 617 1385 1295 884 265 120 11 4 59 99 34 55 0 0 9 64 45 22 109 390 60 32
3947 3949 4085 3992 3070 2812 2624 2402 1568 1647 1212 1224 986 807 1642 1622 877 760 586 570 482 797 593 472 406 232 82 38 0 0 0 0 0 0 25 31 5 2 4 12 44 39 12
3936 3940 3633 3290 2861 2765 2409 1516 1589 1197 1081 859 1063 1976 1636 1979 1445 705 611 338 189 60 155 202 252 137 57 0 0 0 0 0 0 33 19 2 0 0 21 14 45 94 101
3501 2840 2497 2170 2142 1718 1518 1501 1416 1718 1215 1739 1659 1553 1565 1607 973 616 393 115 47 23 10 75 31 27 0 0 0 0 0 8 24 0 0 0 0 0 0 0 0 0 0
2331 1793 1657 1551 1569 1222 1188 1126 1465 921 1061 1217 1264 1092 898 769 491 197 124 55 29 44 160 151 62 45 39 43 50 137 34 40 18 6 0 0 0 0 0 0 0 0 1
2216 2009 1804 1438 1312 1030 755 691 597 358 359 348 249 265 313 308 211 66 66 43 92 112 78 58 18 115 341 189 75 64 73 21 12 1 0 0 0 0 0 0 0 0 0
2027 1889 1377 1159 1174 1159 835 663 367 12 1 0 1 1 65 30 32 17 1 1 1 0 0 0 10 261 459 237 59 35 20 17 7 0 0 0 0 0 0 0 0 0 0
1466 838 1051 957 797 644 410 342 176 49 0 0 0 0 8 4 0 0 0 0 0 0 0 0 38 208 58 24 18 12 9 3 0 0 0 0 0 0 0 0 0 0 0
1102 875 904 707 608 246 255 78 130 99 148 25 0 31 5 0 0 0 0 0 1 4 10 7 6 7 11 7 5 3 0 0 0 0 0 0 0 0 0 0 0 0 0
546 424 303 397 228 142 92 45 68 275 131 24 0 4 0 0 0 0 0 0 1 0 0 0 0 0 0 0 0 0 0 0 0 0 0 0 0 0 0 0 0 0 0
203 5 0 217 188 236 154 129 167 228 418 99 67 7 21 0 4 11 8 18 4 3 0 0 0 0 0 0 0 0 0 0 0 0 0 0 0 0 0 0 0 0 0
264 61 64 174 177 117 80 111 154 205 193 223 72 74 73 7 74 92 21 17 13 7 5 2 0 1 0 0 0 0 0 0 0 0 0 0 0 0 0 0 0 0 0
137 100 102 150 214 85 120 172 202 202 310 107 64 58 47 110 43 47 26 9 12 13 13 8 2 0 0 0 0 0 0 0 0 0 0 0 0 0 0 0 0 0 0
199 278 115 167 237 346 281 269 274 105 220 234 171 162 230 118 35 50 51 47 32 17 12 12 3 0 0 0 0 0 0 0 0 0 0 0 0 0 0 0 0 0 0
56 108 70 168 184 195 106 145 230 192 143 297 204 226 89 21 29 41 36 39 33 31 18 19 7 0 0 0 0 0 0 0 0 0 0 0 0 0 0 0 0 0 0
38 55 63 71 91 189 187 77 91 64 30 49 51 102 56 82 39 45 42 33 10 19 27 26 10 0 0 0 0 0 0 0 0 0 0 0 0 0 0 0 0 0 0